#timestamp,LO_Frequency,Hit 
1506009615.7,286047002.5,N
1506009635.5,286047003.5,N
1506009655.3,286047005.0,N
1506009675.2,286046998.1,N
1506009695.9,286046997.7,N
1506009715.7,286046994.2,N
1506009735.6,286046997.1,N
1506009755.4,286046994.3,N
1506009775.2,286046992.6,N
1506009795.1,286046992.4,N
1506009796.0,286046992.4,N
1506009815.8,286046991.2,N
1506009835.6,286046996.4,N
1506009855.5,286046997.9,N
1506009875.3,286046994.0,N
1506009895.1,286046994.6,N
1506009915.9,286046995.9,N
1506009935.7,286046991.8,N
1506009955.5,286046997.6,N
1506009975.3,286047000.7,N
1506009995.2,286046998.9,N
1506010015.0,286046998.8,N
1506010015.9,286046998.8,N
1506010035.7,286046999.3,N
1506010055.6,286047001.2,N
1506010075.4,286046997.0,N
1506010095.2,286047002.6,N
1506010115.1,286046998.3,N
1506010116.0,286046998.3,N
1506010135.8,286047005.6,N
1506010155.6,286047008.9,N
1506010175.5,286047007.9,N
1506010195.3,286047005.2,N
1506010215.1,286047002.1,N
1506010235.9,286046999.7,N
1506010255.7,286047002.6,N
1506010275.5,286046998.9,N
1506010295.4,286046998.2,N
1506010315.2,286047003.2,N
1506010335.0,286047009.3,N
1506010335.9,286047009.3,N
1506010355.8,286047014.0,N
1506010375.6,286047006.7,N
1506010395.4,286047004.1,N
1506010415.2,286047003.6,N
1506010435.1,286047006.7,N
1506010436.0,286047006.7,N
1506010455.8,286047004.8,N
1506010475.6,286047001.8,N
1506010495.5,286046999.6,N
1506010515.3,286046998.6,N
1506010535.1,286047001.3,N
1506010555.9,286047005.8,N
1506010575.7,286047003.4,N
1506010595.5,286047005.6,N
1506010615.4,286047010.3,N
1506010635.2,286047012.5,P
1506010655.0,286047009.9,N
1506010655.9,286047009.9,N
1506010675.8,286047010.6,P
1506010695.6,286046998.6,N
1506010715.4,286046998.8,N
1506010735.3,286046999.4,N
1506010755.1,286047001.5,N
1506010775.8,286047000.2,N
1506010795.7,286046997.4,N
1506010815.5,286046996.8,N
1506010835.3,286046999.3,N
1506010855.2,286047001.3,N
1506010875.9,286047002.3,N
1506010895.7,286046995.8,N
1506010915.6,286046996.0,N
1506010935.4,286046992.1,N
1506010955.2,286046993.2,N
1506010975.0,286046989.7,N
1506010975.9,286046989.7,N
1506010995.8,286046988.8,N
1506011015.6,286046988.2,N
1506011035.4,286046989.7,N
1506011055.3,286046989.1,N
1506011075.1,286046992.8,N
1506011095.8,286046989.2,N
1506011115.7,286046990.9,N
1506011135.5,286046989.5,N
1506011155.3,286046988.6,N
1506011175.2,286046991.3,N
1506011195.9,286046994.8,N
1506011215.7,286046992.7,N
1506011235.5,286046991.8,N
1506011255.4,286046998.2,N
1506011275.2,286046998.6,N
1506011295.0,286046997.0,N
1506011295.9,286046997.0,N
1506011315.8,286046996.8,N
1506011335.6,286046997.4,N
1506011355.4,286046994.8,N
1506011375.3,286046992.7,N
1506011395.1,286046988.0,P
1506011415.8,286046992.5,N
1506011435.7,286046996.8,N
1506011455.5,286046996.4,N
1506011475.3,286046996.0,N
1506011495.2,286047000.8,N
1506011515.9,286046998.0,N
1506011535.7,286046994.4,N
1506011555.6,286046990.3,N
1506011575.4,286046991.1,N
1506011595.2,286046991.6,N
1506011615.0,286046989.8,N
1506011616.0,286046989.8,N
1506011635.8,286046991.1,N
1506011655.6,286046994.2,N
1506011675.4,286046999.6,N
1506011695.3,286046996.2,N
1506011715.1,286046995.3,N
1506011735.8,286046996.8,N
1506011755.7,286046995.0,N
1506011775.5,286046997.1,N
1506011795.3,286047002.8,N
1506011815.2,286047002.1,N
1506011835.9,286046999.0,N
1506011855.7,286046998.9,N
1506011875.6,286046997.8,N
1506011895.4,286047001.2,N
1506011915.2,286046997.2,N
1506011935.1,286046993.8,N
1506011936.0,286046993.8,N
1506011955.8,286046992.7,N
1506011975.6,286046989.2,P
1506011995.5,286046993.9,N
1506012015.3,286046998.1,N
1506012035.1,286047002.2,N
1506012055.9,286047000.6,N
1506012075.7,286047000.1,N
1506012095.5,286047004.4,N
1506012115.3,286047002.7,N
1506012135.2,286047002.2,N
1506012155.9,286046999.9,N
1506012175.7,286046999.6,N
1506012195.6,286046997.1,N
1506012215.4,286047002.3,N
1506012235.2,286047001.7,N
1506012255.1,286046999.8,N
1506012256.0,286046999.8,N
1506012275.8,286047000.5,N
1506012295.6,286046998.5,N
1506012315.5,286046996.9,N
1506012335.3,286046999.7,N
1506012355.1,286047005.4,N
1506012375.8,286047005.5,N
1506012395.7,286047007.0,N
1506012415.5,286047006.5,N
1506012435.3,286047006.7,N
1506012455.2,286047008.6,N
1506012475.9,286047006.9,N
1506012495.7,286047006.9,N
1506012515.6,286047007.6,N
1506012535.4,286047007.0,N
1506012555.2,286047007.5,N
1506012575.1,286047009.0,N
1506012576.0,286047009.0,N
1506012595.8,286047009.1,N
1506012615.6,286047010.4,N
1506012635.5,286047007.6,N
1506012655.3,286047011.9,N
1506012675.1,286047017.2,P
1506012695.9,286047011.2,N
1506012715.7,286047007.0,N
1506012735.5,286047006.5,N
1506012755.4,286047011.9,N
1506012775.2,286047011.9,N
1506012795.0,286047012.8,P
1506012795.9,286047012.8,P
1506012815.8,286047005.6,P
1506012835.6,286047001.6,N
1506012855.4,286047005.4,N
1506012875.3,286046998.4,N
1506012895.1,286046992.0,N
1506012896.0,286046992.0,N
1506012915.8,286046992.5,N
1506012935.7,286046990.1,N
1506012955.5,286046992.7,N
1506012975.3,286046996.0,N
1506012995.1,286047000.5,N
1506013015.9,286046997.7,N
1506013035.7,286046991.8,N
1506013055.5,286046990.4,N
1506013075.4,286046987.1,N
1506013095.2,286046985.7,N
1506013115.0,286046989.2,N
1506013115.9,286046989.2,N
1506013135.8,286046993.9,N
1506013155.6,286046993.2,N
1506013175.4,286046994.2,N
1506013195.3,286046995.6,N
